Voltar ao catálogo

MOHAMMED VI-B

AtivoCiênciaSSO
NORAD 43717·PAYLOAD·🇲🇦 Morocco

Lançado Nov 21, 2018 de Guiana Space Centre

Loading…

Próximas Passagens (próximas 24 horas)

TLE

AtualizadoSource: Space-Track

Época: Sep 14, 2026, 12:41 UTC

1 43717U 18095A   26257.52867524  .00000449  00000-0  70683-4 0  9991
2 43717  97.9488 328.5859 0001117  95.8918 264.2419 14.77093790421371

Acompanhe MOHAMMED VI-B em tempo real com AllMySat

Download on the App Store